| time (UTC) | temp F | wind direction | speed knots | gust knots | rain 1hr in | rain 24hr in | rain mn in | humidity % | barometer mb |
| 20260905152932 | 65 | 346 | 6.1 | 13.0 | 0.00 | 0.02 | 0.01 | 75 | 1010.5 |
| 20260905151932 | 64 | 33 | 4.3 | 13.9 | 0.00 | 0.02 | 0.01 | 74 | 1010.5 |
| 20260905151407 | 64 | 67 | 5.2 | 13.0 | 0.00 | 0.02 | 0.01 | 75 | 1010.5 |
| 20260905145932 | 64 | 355 | 3.5 | 10.4 | 0.00 | 0.02 | 0.01 | 71 | 1010.3 |
| 20260905144932 | 63 | 75 | 3.5 | 10.4 | 0.00 | 0.02 | 0.01 | 72 | 1010.2 |
| 20260905143931 | 64 | 70 | 5.2 | 12.2 | 0.00 | 0.02 | 0.01 | 71 | 1010.0 |
| 20260905142932 | 63 | 26 | 3.5 | 11.3 | 0.00 | 0.02 | 0.01 | 60 | 1010.1 |
| 20260905141932 | 62 | 84 | 3.5 | 7.8 | 0.00 | 0.02 | 0.01 | 57 | 1010.0 |
| 20260905141414 | 62 | 39 | 2.6 | 7.8 | 0.01 | 0.02 | 0.01 | 55 | 1010.0 |
| 20260905135932 | 62 | 67 | 1.7 | 6.1 | 0.01 | 0.02 | 0.01 | 55 | 1009.9 |
| 20260905134933 | 61 | 80 | 1.7 | 6.1 | 0.01 | 0.02 | 0.01 | 57 | 1009.8 |
| 20260905133932 | 62 | 102 | 0.9 | 3.5 | 0.01 | 0.02 | 0.01 | 57 | 1009.7 |
| 20260905132932 | 62 | 5 | 0.9 | 4.3 | 0.01 | 0.02 | 0.01 | 58 | 1009.6 |
| 20260905131932 | 62 | 92 | 0.9 | 9.6 | 0.01 | 0.02 | 0.01 | 60 | 1009.5 |
| 20260905130932 | 62 | 58 | 3.5 | 9.6 | 0.00 | 0.01 | 0.00 | 62 | 1009.3 |
| 20260905125932 | 63 | 51 | 2.6 | 8.7 | 0.00 | 0.01 | 0.00 | 65 | 1009.1 |
| 20260905124932 | 63 | 50 | 3.5 | 9.6 | 0.00 | 0.01 | 0.00 | 63 | 1009.1 |
| 20260905123933 | 63 | 62 | 3.5 | 9.6 | 0.00 | 0.01 | 0.00 | 58 | 1009.1 |
| 20260905122932 | 62 | 60 | 2.6 | 7.0 | 0.00 | 0.01 | 0.00 | 55 | 1009.0 |
| 20260905122411 | 62 | 66 | 1.7 | 4.3 | 0.00 | 0.01 | 0.00 | 56 | 1009.0 |
| 20260905121407 | 61 | 61 | 0.9 | 3.5 | 0.00 | 0.01 | 0.00 | 56 | 1009.0 |
| 20260905115932 | 61 | 107 | 0.9 | 3.5 | 0.00 | 0.01 | 0.00 | 57 | 1009.0 |
| 20260905114933 | 61 | 22 | 0.9 | 4.3 | 0.00 | 0.01 | 0.00 | 59 | 1009.0 |
| 20260905114406 | 61 | 226 | 1.7 | 6.1 | 0.00 | 0.01 | 0.00 | 59 | 1009.0 |
| 20260905112933 | 61 | 54 | 0.9 | 5.2 | 0.00 | 0.01 | 0.00 | 61 | 1008.9 |
| 20260905111932 | 61 | 335 | 0.9 | 4.3 | 0.00 | 0.01 | 0.00 | 62 | 1008.6 |
| 20260905110932 | 61 | 183 | 1.7 | 5.2 | 0.00 | 0.01 | 0.00 | 62 | 1008.5 |
| 20260905105932 | 60 | 343 | 0.0 | 4.3 | 0.00 | 0.01 | 0.00 | 61 | 1008.4 |
| 20260905104932 | 60 | 259 | 0.0 | 0.0 | 0.00 | 0.01 | 0.00 | 61 | 1008.2 |
| 20260905103933 | 60 | 259 | 0.0 | 0.0 | 0.00 | 0.01 | 0.00 | 60 | 1008.2 |
| 20260905102932 | 60 | 306 | 0.0 | 2.6 | 0.00 | 0.01 | 0.00 | 60 | 1008.1 |
| 20260905101932 | 60 | 299 | 0.9 | 2.6 | 0.00 | 0.01 | 0.00 | 61 | 1008.0 |
| 20260905100932 | 60 | 220 | 0.0 | 3.5 | 0.00 | 0.01 | 0.00 | 61 | 1007.9 |
| 20260905095932 | 60 | 316 | 0.0 | 3.5 | 0.00 | 0.01 | 0.00 | 61 | 1007.9 |
| 20260905095407 | 60 | 167 | 0.9 | 3.5 | 0.00 | 0.01 | 0.00 | 61 | 1007.8 |
| 20260905093932 | 60 | 196 | 0.9 | 3.5 | 0.00 | 0.01 | 0.00 | 60 | 1007.7 |
| 20260905092932 | 60 | 97 | 0.0 | 1.7 | 0.00 | 0.01 | 0.00 | 59 | 1007.6 |
| 20260905091931 | 60 | 144 | 0.9 | 1.7 | 0.00 | 0.01 | 0.00 | 59 | 1007.6 |
| 20260905090932 | 60 | 153 | 0.9 | 4.3 | 0.00 | 0.01 | 0.00 | 58 | 1007.6 |
| 20260905085932 | 60 | 192 | 0.9 | 4.3 | 0.00 | 0.01 | 0.00 | 57 | 1007.6 |
| 20260905084932 | 60 | 267 | 0.0 | 4.3 | 0.00 | 0.01 | 0.00 | 55 | 1007.6 |
| 20260905083932 | 60 | 109 | 0.0 | 0.0 | 0.00 | 0.01 | 0.00 | 55 | 1007.6 |
| 20260905082932 | 59 | 85 | 0.0 | 0.0 | 0.00 | 0.01 | 0.00 | 54 | 1007.6 |
| 20260905081932 | 59 | 234 | 0.0 | 0.0 | 0.00 | 0.01 | 0.00 | 54 | 1007.5 |
| 20260905081855 | 59 | 98 | 0.0 | 0.0 | 0.00 | 0.01 | 0.00 | 54 | 1007.5 |
| 20260905080414 | 59 | 98 | 0.0 | 0.0 | 0.00 | 0.01 | 0.00 | 54 | 1007.5 |
| 20260905074932 | 59 | 50 | 0.0 | 0.0 | 0.00 | 0.01 | 0.00 | 53 | 1007.4 |
| 20260905073932 | 58 | 52 | 0.0 | 0.0 | 0.00 | 0.01 | 0.00 | 54 | 1007.3 |
| 20260905072932 | 58 | 62 | 0.0 | 0.0 | 0.00 | 0.01 | 0.00 | 53 | 1007.4 |
| 20260905071932 | 58 | 91 | 0.0 | 0.0 | 0.00 | 0.01 | 0.00 | 53 | 1007.3 |
| 20260905071411 | 59 | 59 | 0.0 | 0.9 | 0.00 | 0.01 | 0.00 | 53 | 1007.3 |
| 20260905065927 | 58 | 40 | 0.0 | 0.9 | 0.00 | 0.01 | 0.00 | 53 | 1007.3 |
| 20260905064925 | 59 | 177 | 0.0 | 0.0 | 0.00 | 0.01 | 0.00 | 53 | 1007.2 |
| 20260905063925 | 59 | 177 | 0.0 | 0.0 | 0.00 | 0.01 | 0.00 | 53 | 1007.1 |
| 20260905062925 | 58 | 225 | 0.0 | 0.0 | 0.00 | 0.01 | 0.00 | 53 | 1007.2 |
| 20260905061924 | 58 | 221 | 0.0 | 0.0 | 0.00 | 0.01 | 0.00 | 54 | 1007.2 |
| 20260905061357 | 58 | 291 | 0.0 | 0.0 | 0.00 | 0.01 | 0.00 | 54 | 1007.3 |
| 20260905055923 | 58 | 290 | 0.0 | 0.0 | 0.00 | 0.01 | 0.00 | 54 | 1007.2 |
| 20260905054923 | 58 | 291 | 0.0 | 0.0 | 0.00 | 0.01 | 0.00 | 54 | 1007.3 |
| 20260905054402 | 58 | 290 | 0.0 | 0.0 | 0.00 | 0.01 | 0.00 | 54 | 1007.2 |
| 20260905052921 | 59 | 290 | 0.0 | 0.0 | 0.00 | 0.01 | 0.00 | 54 | 1007.3 |
| 20260905051921 | 59 | 290 | 0.0 | 0.0 | 0.00 | 0.01 | 0.00 | 54 | 1007.2 |
| 20260905050921 | 59 | 291 | 0.0 | 0.0 | 0.00 | 0.01 | 0.00 | 54 | 1007.1 |
| 20260905045921 | 59 | 290 | 0.0 | 0.0 | 0.00 | 0.01 | 0.00 | 54 | 1007.0 |
| 20260905044921 | 60 | 291 | 0.0 | 0.0 | 0.00 | 0.01 | 0.00 | 54 | 1007.0 |
| 20260905044402 | 60 | 291 | 0.0 | 0.0 | 0.00 | 0.01 | 0.00 | 54 | 1007.1 |
| 20260905042921 | 60 | 291 | 0.0 | 0.0 | 0.00 | 0.01 | 0.00 | 55 | 1007.1 |
| 20260905041920 | 60 | 290 | 0.0 | 0.0 | 0.00 | 0.01 | 0.00 | 55 | 1007.2 |
| 20260905040919 | 60 | 291 | 0.0 | 0.0 | 0.00 | 0.01 | 0.00 | 55 | 1007.2 |
| 20260905035916 | 60 | 290 | 0.0 | 0.0 | 0.00 | 0.01 | 0.01 | 56 | 1007.2 |
| 20260905034914 | 60 | 291 | 0.0 | 0.0 | 0.00 | 0.01 | 0.01 | 56 | 1007.3 |
| 20260905033914 | 61 | 291 | 0.0 | 0.0 | 0.00 | 0.01 | 0.01 | 55 | 1007.3 |
| 20260905032911 | 61 | 291 | 0.0 | 0.0 | 0.00 | 0.01 | 0.01 | 56 | 1007.2 |
| 20260905031907 | 62 | 290 | 0.0 | 0.0 | 0.00 | 0.01 | 0.01 | 55 | 1007.2 |
| 20260905030908 | 62 | 291 | 0.0 | 0.0 | 0.00 | 0.01 | 0.01 | 55 | 1007.2 |
| 20260905025907 | 62 | 294 | 0.0 | 0.0 | 0.00 | 0.01 | 0.01 | 55 | 1007.2 |
| 20260905025347 | 62 | 294 | 0.0 | 0.0 | 0.00 | 0.01 | 0.01 | 54 | 1007.3 |
| 20260905023906 | 62 | 284 | 0.0 | 0.0 | 0.00 | 0.01 | 0.01 | 54 | 1007.4 |
| 20260905022906 | 62 | 284 | 0.0 | 0.0 | 0.00 | 0.01 | 0.01 | 54 | 1007.3 |
| 20260905021906 | 62 | 284 | 0.0 | 0.0 | 0.00 | 0.01 | 0.01 | 54 | 1007.3 |
| 20260905020904 | 62 | 221 | 0.0 | 0.0 | 0.00 | 0.01 | 0.01 | 54 | 1007.3 |
| 20260905015904 | 63 | 267 | 0.0 | 0.0 | 0.00 | 0.01 | 0.01 | 54 | 1007.3 |
| 20260905014903 | 63 | 281 | 0.0 | 0.0 | 0.00 | 0.01 | 0.01 | 54 | 1007.3 |
| 20260905013903 | 63 | 281 | 0.0 | 0.0 | 0.00 | 0.01 | 0.01 | 55 | 1007.3 |
| 20260905012903 | 63 | 49 | 0.0 | 0.0 | 0.00 | 0.01 | 0.01 | 56 | 1007.6 |
| 20260905011904 | 63 | 49 | 0.0 | 0.0 | 0.00 | 0.01 | 0.01 | 56 | 1007.4 |
| 20260905011347 | 64 | 49 | 0.0 | 0.0 | 0.00 | 0.01 | 0.01 | 56 | 1007.4 |
| 20260905005903 | 64 | 49 | 0.0 | 0.0 | 0.00 | 0.01 | 0.01 | 56 | 1007.4 |
| 20260905004904 | 64 | 49 | 0.0 | 0.0 | 0.00 | 0.01 | 0.01 | 56 | 1007.6 |
| 20260905003904 | 65 | 49 | 0.0 | 0.0 | 0.00 | 0.01 | 0.01 | 56 | 1007.5 |
| 20260905003345 | 65 | 49 | 0.0 | 0.0 | 0.00 | 0.01 | 0.01 | 57 | 1007.5 |
| 20260905001903 | 65 | 49 | 0.0 | 0.0 | 0.00 | 0.01 | 0.01 | 58 | 1007.5 |
| 20260905000903 | 65 | 49 | 0.0 | 0.0 | 0.00 | 0.01 | 0.01 | 58 | 1007.3 |
| 20260904235904 | 65 | 49 | 0.0 | 0.9 | 0.00 | 0.01 | 0.01 | 60 | 1007.3 |
| 20260904234904 | 66 | 49 | 0.0 | 0.9 | 0.00 | 0.01 | 0.01 | 61 | 1007.3 |
| 20260904233906 | 66 | 49 | 0.0 | 0.0 | 0.00 | 0.01 | 0.01 | 62 | 1007.3 |
| 20260904233354 | 66 | 49 | 0.0 | 0.0 | 0.00 | 0.01 | 0.01 | 63 | 1007.2 |
| 20260904231906 | 67 | 49 | 0.0 | 0.0 | 0.00 | 0.01 | 0.01 | 64 | 1007.2 |
| 20260904230906 | 67 | 49 | 0.0 | 0.0 | 0.00 | 0.01 | 0.01 | 65 | 1007.1 |
| 20260904225907 | 68 | 49 | 0.0 | 0.0 | 0.00 | 0.01 | 0.01 | 66 | 1007.0 |
| 20260904224906 | 68 | 49 | 0.0 | 0.9 | 0.00 | 0.01 | 0.01 | 66 | 1007.0 |
| 20260904223906 | 68 | 49 | 0.0 | 1.7 | 0.00 | 0.01 | 0.01 | 64 | 1007.0 |
| 20260904222906 | 69 | 49 | 0.9 | 1.7 | 0.00 | 0.01 | 0.01 | 64 | 1006.9 |
| 20260904221907 | 69 | 267 | 0.0 | 0.9 | 0.00 | 0.01 | 0.01 | 62 | 1006.8 |
| 20260904220907 | 69 | 267 | 0.0 | 0.9 | 0.01 | 0.01 | 0.01 | 61 | 1006.7 |
| 20260904215904 | 69 | 267 | 0.0 | 0.9 | 0.01 | 0.01 | 0.01 | 63 | 1006.6 |
| 20260904215340 | 69 | 267 | 0.0 | 1.7 | 0.01 | 0.01 | 0.01 | 66 | 1006.4 |
| 20260904213903 | 70 | 267 | 0.0 | 1.7 | 0.01 | 0.01 | 0.01 | 70 | 1006.4 |
| 20260904212905 | 72 | 267 | 0.0 | 1.7 | 0.01 | 0.01 | 0.01 | 75 | 1006.5 |
| 20260904211904 | 74 | 282 | 0.9 | 5.2 | 0.01 | 0.01 | 0.01 | 75 | 1006.5 |
| 20260904210903 | 76 | 288 | 0.9 | 5.2 | 0.00 | 0.00 | 0.00 | 71 | 1006.5 |
| 20260904205903 | 77 | 281 | 0.9 | 3.5 | 0.00 | 0.00 | 0.00 | 70 | 1006.3 |
| 20260904204905 | 77 | 67 | 0.0 | 3.5 | 0.00 | 0.00 | 0.00 | 71 | 1006.4 |
| 20260904203904 | 77 | 296 | 0.0 | 2.6 | 0.00 | 0.00 | 0.00 | 72 | 1006.5 |
| 20260904202904 | 77 | 50 | 0.0 | 2.6 | 0.00 | 0.00 | 0.00 | 69 | 1006.4 |
| 20260904201904 | 78 | 63 | 0.9 | 2.6 | 0.00 | 0.00 | 0.00 | 67 | 1006.4 |
| 20260904200904 | 78 | 242 | 0.0 | 1.7 | 0.00 | 0.00 | 0.00 | 64 | 1006.4 |
| 20260904195904 | 76 | 332 | 0.0 | 0.9 | 0.00 | 0.00 | 0.00 | 70 | 1006.5 |
| 20260904194904 | 76 | 42 | 0.0 | 0.9 | 0.00 | 0.00 | 0.00 | 72 | 1006.5 |
| 20260904193904 | 75 | 42 | 0.0 | 5.2 | 0.00 | 0.00 | 0.00 | 74 | 1006.6 |
| 20260904192904 | 75 | 260 | 2.6 | 6.1 | 0.00 | 0.00 | 0.00 | 69 | 1006.6 |
| 20260904191904 | 74 | 45 | 1.7 | 6.1 | 0.00 | 0.00 | 0.00 | 72 | 1006.5 |
| 20260904190904 | 73 | 44 | 0.9 | 6.1 | 0.00 | 0.00 | 0.00 | 71 | 1006.6 |
| 20260904185904 | 74 | 57 | 1.7 | 6.1 | 0.00 | 0.00 | 0.00 | 70 | 1006.6 |
| 20260904184904 | 76 | 13 | 2.6 | 7.0 | 0.00 | 0.00 | 0.00 | 68 | 1006.6 |
| 20260904183904 | 78 | 39 | 0.9 | 5.2 | 0.00 | 0.00 | 0.00 | 66 | 1006.5 |
| 20260904182903 | 78 | 259 | 0.9 | 3.5 | 0.00 | 0.00 | 0.00 | 69 | 1006.5 |
| 20260904181904 | 78 | 257 | 0.9 | 6.1 | 0.00 | 0.00 | 0.00 | 70 | 1006.6 |
| 20260904181338 | 78 | 294 | 0.9 | 7.0 | 0.00 | 0.00 | 0.00 | 68 | 1006.5 |
| 20260904175904 | 78 | 228 | 1.7 | 7.0 | 0.00 | 0.00 | 0.00 | 66 | 1006.6 |
| 20260904174905 | 77 | 0 | 1.7 | 4.3 | 0.00 | 0.00 | 0.00 | 71 | 1006.7 |
| 20260904173904 | 78 | 252 | 2.6 | 7.0 | 0.00 | 0.00 | 0.00 | 66 | 1006.8 |
| 20260904173825 | 78 | 282 | 1.7 | 6.1 | 0.00 | 0.00 | 0.00 | 68 | 1006.9 |
| 20260904171905 | 78 | 200 | 2.6 | 7.0 | 0.00 | 0.00 | 0.00 | 69 | 1006.9 |
| 20260904170904 | 77 | 278 | 2.6 | 7.0 | 0.00 | 0.00 | 0.00 | 71 | 1007.1 |
| 20260904165904 | 78 | 248 | 1.7 | 7.8 | 0.00 | 0.00 | 0.00 | 68 | 1007.2 |
| 20260904164904 | 77 | 240 | 3.5 | 7.8 | 0.00 | 0.00 | 0.00 | 70 | 1007.2 |
| 20260904163904 | 77 | 182 | 2.6 | 6.1 | 0.00 | 0.00 | 0.00 | 72 | 1007.3 |
| 20260904162904 | 76 | 221 | 2.6 | 4.3 | 0.00 | 0.00 | 0.00 | 69 | 1007.4 |
| 20260904161905 | 76 | 53 | 1.7 | 7.0 | 0.00 | 0.00 | 0.00 | 74 | 1007.6 |
| 20260904160905 | 76 | 320 | 2.6 | 7.0 | 0.00 | 0.00 | 0.00 | 73 | 1007.6 |
| 20260904155904 | 76 | 240 | 1.7 | 5.2 | 0.00 | 0.00 | 0.00 | 74 | 1007.8 |
| 20260904154905 | 75 | 355 | 1.7 | 5.2 | 0.00 | 0.00 | 0.00 | 74 | 1007.8 |
| 20260904153904 | 74 | 240 | 1.7 | 4.3 | 0.00 | 0.00 | 0.00 | 74 | 1007.9 |